Location: Cabeza Gorda
(40.0667°N, 4.9667°W)
Time: 05:05:57
(UTC+00:00)

SeaSat 1 - Pass Details

Date: 15 January 2026
Orbit: 737 x 740 km, 108.0° (Epoch: 15 February)

Event Time Altitude Azimuth Distance (km) Brightness Sun altitude
Rises 06:06:34 0° 30° (NNE) 3,180 5.9 -17.6°
Reaches altitude 10° 06:08:53 10° 35° (NE) 2,253 5.2 -17.2°
Maximum altitude 06:13:41 54° 113° (ESE) 899 3.2 -16.3°
Drops below altitude 10° 06:18:26 10° 190° (S) 2,239 5.0 -15.4°
Sets 06:20:44 0° 195° (SSW) 3,158 5.7 -15.0°
